STARLINK-37021, 68105

Orbit data source: Space-Track

STARLINK-37021, 68105 is a payload satellite owned by SpaceX/Seattle (US) in SSO that was launched on Sun, 08 Mar 2026 UTC via an FALCON 9 launch vehicle from the Air Force Western Test Range (AFWTR). Payload-class satellites include a variety of spacecraft equipped with specific instruments for various scientific and technological missions. These include communications satellites like Starlink; space stations such as the ISS; scientific satellites like the Hubble; Earth observation satellites from companies like Planet Labs, Umbra, and HawkEye 360; GPS; miniature CubeSats for education and research; and military/defense satellites.

Loading next visibility...
Identifier
68105, 2026-044E
Orbit
SSO
Country
Flag of USUS
Related business
Manufacturer
SpaceX/Seattle
Mission
Operational Commercial Communications
Bus & Motor
STARLINK V2MO, Unknown motor
Mass
575 kg wet, ~530 kg dry
Launch date (UTC)
2026-03-08 (6 months ago)
Launch vehicle
FALCON 9
Launch site
Air Force Western Test Range (AFWTR)
Object type
Payload
Rocket body
Debris
Shape & HBR
Box + 1 Pan, 17.7 m
Radar Cross Section
41.120 m², Large (>1 m²)

Expand to show TLE details & history
Last TLE update: 16 hours ago

TLE from 16 hours ago
0 STARLINK-37021
1 68105U 26044E   26246.72300414  .00009623  00000-0  30002-3 0  9995
2 68105  97.2853 205.8624 0002329 106.4382 253.7116 15.33444931 28869
Epoch: 2026-09-03T17:21Z
TLE epoch observation values (Epoch: 2026-09-03T17:21:07.557Z)
Latitude
-0.00012°
Longitude
-37.27616°
Altitude
469.103 km
Speed
7.631 km/s
True Right ascension
13h 43m 26s
True Declination
0° 00' 00"
Sunlit
Object was in daylight at epoch
Visualization orbit readout
Latitude
Unknown
Longitude
Unknown
Altitude
Unknown
Speed
Unknown
Apparent Right ascension
Unknown
Apparent Declination
Unknown
Sunlit
N/A
Visualization observer readout
Local Sidereal Time
01:44:08
Azimuth
Unknown
Elevation
Unknown
Doppler factor
Unknown
Orbital elements
Apogee altitude
464.079 km
Perigee altitude
460.893 km
Semi-major axis
6,840.623 km
Eccentricity
0.00023
Inclination
97.2853°
RAAN
205.8624°
Arg. of periapsis
106.4382°
True anomaly
253.68598°
Mean anomaly
253.7116°
Eccentric anomaly
253.69879°
Mean motion
3.83619 °/min
Orbital period
93.84 mins
BSTAR
0.00030002
Loading maneuver chart data...
Computing Atmospheric mass density...
Loading historical data...
Loading historical data...
Loading historical data...
Loading historical data...
Loading historical data...
Loading historical data...
Loading historical data...

Documentation

Showing up to 5 results
|